Boothville, LA

6:53 PM CDT on April 25, 2017 (GMT -0500)
Boothville

Weather History for KBVE - March, 2013

Change the Weather History Date:

Wednesday, March 13, 2013

  Actual Average (KAXO) Record (KAXO)
Temperature  
Mean Temperature 58 °F -  
Max Temperature 64 °F 62 °F 77 °F (2012)
Min Temperature 53 °F 58 °F 46 °F (1998)
Degree Days  
Heating Degree Days 7    
Growing Degree Days 8 (Base 50)    
Moisture  
Dew Point 43 °F    
Average Humidity 60    
Maximum Humidity 86    
Minimum Humidity 35    
Precipitation  
Precipitation 0.00 in - - ()
Sea Level Pressure  
Sea Level Pressure 30.31 in    
Wind  
Wind Speed 7 mph (NNW)    
Max Wind Speed 12 mph    
Max Gust Speed 20 mph    
Visibility 10 miles    
Events      
Averages and records for this station are not official NWS values.
T = Trace of Precipitation, MM = Missing Value Source: NWS Daily Summary

Daily Weather History Graph

Daily Weather History Graph

Search for Another Location

Airport or City:

Trip Planner

Search our weather history database for the weather conditions in past years. The results will help you decide how hot, cold, wet, or windy it might be!

Date:

Astronomy

Mar. 13, 2013 Rise Set
Actual Time 7:09 AM CDT 7:04 PM CDT
Civil Twilight 6:45 AM CDT 7:28 PM CDT
Nautical Twilight 6:18 AM CDT 7:56 PM CDT
Astronomical Twilight 5:50 AM CDT 8:23 PM CDT
Moon 8:00 AM CDT (3/13) 9:06 PM CDT (3/13)
Length of Visible Light 12h 43m
Length of Day
11h 55m
Waxing Crescent, 4% of the Moon is Illuminated
Mar 13
Waxing Crescent
Mar 19
First Quarter
Mar 27
Full
Apr 2
Last Quarter
Apr 10
New

Hourly Weather History & Observations

Time (CDT) Temp. Dew Point Humidity Pressure Visibility Wind Dir Wind Speed Gust Speed Precip Events Conditions
12:51 AM 53.1 °F 48.0 °F 83% 30.22 in 10.0 mi NW 5.8 mph - N/A   Clear
1:51 AM 53.1 °F 48.9 °F 86% 30.22 in 10.0 mi NW 6.9 mph - N/A   Clear
2:51 AM 54.0 °F 50.0 °F 86% 30.22 in 10.0 mi NNW 6.9 mph - N/A   Clear
3:51 AM 54.0 °F 48.0 °F 80% 30.23 in 10.0 mi North 3.5 mph - N/A   Clear
4:51 AM 54.0 °F 48.9 °F 83% 30.24 in 10.0 mi NNW 8.1 mph - N/A   Clear
5:51 AM 54.0 °F 46.9 °F 77% 30.27 in 10.0 mi Variable 5.8 mph - N/A   Clear
6:51 AM 54.0 °F 44.1 °F 69% 30.30 in 10.0 mi North 6.9 mph - N/A   Clear
7:51 AM 55.0 °F 45.0 °F 69% 30.32 in 10.0 mi Variable 5.8 mph - N/A   Clear
8:51 AM 57.0 °F 44.1 °F 62% 30.34 in 10.0 mi Variable 4.6 mph - N/A   Clear
9:51 AM 59.0 °F 46.9 °F 64% 30.36 in 10.0 mi North 6.9 mph - N/A   Clear
10:51 AM 60.1 °F 45.0 °F 57% 30.37 in 10.0 mi North 9.2 mph 17.3 mph N/A   Clear
11:51 AM 60.1 °F 43.0 °F 53% 30.38 in 10.0 mi North 9.2 mph 19.6 mph N/A   Clear
12:51 PM 60.1 °F 45.0 °F 57% 30.36 in 10.0 mi North 9.2 mph - N/A   Clear
1:51 PM 61.0 °F 42.1 °F 50% 30.34 in 10.0 mi North 9.2 mph - N/A   Clear
2:51 PM 62.1 °F 41.0 °F 46% 30.31 in 10.0 mi North 8.1 mph - N/A   Clear
3:51 PM 63.0 °F 36.0 °F 37% 30.30 in 10.0 mi NNW 11.5 mph - N/A   Clear
4:51 PM 63.0 °F 36.0 °F 37% 30.30 in 10.0 mi NNW 11.5 mph - N/A   Clear
5:51 PM 63.0 °F 35.1 °F 35% 30.30 in 10.0 mi NNW 10.4 mph - N/A   Clear
6:51 PM 59.0 °F 37.9 °F 46% 30.30 in 10.0 mi NNW 8.1 mph - N/A   Clear
7:51 PM 57.0 °F 39.9 °F 53% 30.31 in 10.0 mi NW 4.6 mph - N/A   Clear
8:51 PM 57.0 °F 42.1 °F 57% 30.32 in 10.0 mi NNW 8.1 mph - N/A   Clear
9:51 PM 57.0 °F 41.0 °F 55% 30.35 in 10.0 mi Variable 5.8 mph - N/A   Clear
10:51 PM 57.0 °F 37.9 °F 49% 30.37 in 10.0 mi North 6.9 mph - N/A   Clear
11:51 PM 55.9 °F 37.9 °F 51% 30.37 in 10.0 mi North 9.2 mph - N/A   Clear